FARMINGDALE ARPT, NY current weather conditions

sailwx.info

Wind from 230 at 4 knots

Air temperature 4.0° C
Visibility: greater than 8.7 NM
Dewpoint -3.0° C

Last reported at 2019-Nov-15 07:10 UTC.
Time now 2019-Nov-15 07:54 UTC

Location: N 40°43' W 073°25'.
View on Google Maps.

See reports from other nearby stations

  
Tides and Currents Weather Stations Pressure Air Temp Water Temp Dewpoint Dewpoint Depression Visibility Wind Speed Wind Dir Waves Ship Positions
date/time (UTC)wind fromknots sea level pressurealtimeterstation pressurevisibilityair tempwater tempwave heightnotes
2019-Nov-15 07:10 230 4 8.7 4.0
2019-Nov-15 07:05 240 4 8.7 4.0
2019-Nov-15 07:00 250 4 8.7 4.0
2019-Nov-15 06:55 260 4 8.7 4.0
2019-Nov-15 06:53 270 4 8.7 4.4
2019-Nov-15 06:50 260 5 8.7 4.0
2019-Nov-15 06:45 270 5 8.7 4.0
2019-Nov-15 06:40 260 6 8.7 4.0
2019-Nov-15 06:35 260 6 8.7 4.0
2019-Nov-15 06:30 270 7 8.7 4.0
2019-Nov-15 06:25 270 6 8.7 4.0
2019-Nov-15 06:20 270 7 8.7 4.0
2019-Nov-15 06:15 270 7 8.7 4.0
2019-Nov-15 06:10 270 5 8.7 4.0
2019-Nov-15 06:05 280 4 8.7 4.0
2019-Nov-15 06:00 280 4 8.7 4.0
2019-Nov-15 05:55 260 4 8.7 4.0
2019-Nov-15 05:53 260 4 8.7 3.9
2019-Nov-15 05:50 240 4 8.7 4.0
2019-Nov-15 05:45 240 4 8.7 4.0
2019-Nov-15 05:40 240 4 8.7 4.0
2019-Nov-15 05:35 240 4 8.7 4.0
2019-Nov-15 05:30 250 4 8.7 4.0
2019-Nov-15 05:25 260 5 8.7 4.0
2019-Nov-15 05:20 270 4 8.7 4.0
2019-Nov-15 05:15 270 5 8.7 4.0
2019-Nov-15 05:10 270 4 8.7 4.0
2019-Nov-15 05:05 260 4 8.7 4.0
2019-Nov-15 05:00 240 3 8.7 4.0
2019-Nov-15 04:55 240 4 8.7 4.0
2019-Nov-15 04:53 250 4 8.7 4.4
2019-Nov-15 04:50 250 5 8.7 4.0
2019-Nov-15 04:45 250 6 8.7 4.0
2019-Nov-15 04:40 250 5 8.7 4.0
2019-Nov-15 04:35 250 5 8.7 4.0
2019-Nov-15 04:30 260 5 8.7 4.0
2019-Nov-15 04:25 260 5 8.7 4.0
2019-Nov-15 04:20 260 6 8.7 4.0
2019-Nov-15 04:15 260 6 8.7 4.0
2019-Nov-15 04:10 260 5 8.7 5.0
2019-Nov-15 04:05 270 7 8.7 5.0
2019-Nov-15 04:00 270 5 8.7 4.0
2019-Nov-15 03:55 260 5 8.7 4.0
2019-Nov-15 03:53 260 5 8.7 4.4
2019-Nov-15 03:50 270 5 8.7 5.0
2019-Nov-15 03:45 270 6 8.7 5.0
2019-Nov-15 03:40 270 6 8.7 5.0
2019-Nov-15 03:35 260 6 8.7 5.0
2019-Nov-15 03:30 250 6 8.7 5.0
2019-Nov-15 03:25 260 5 8.7 5.0
2019-Nov-15 03:20 260 6 8.7 6.0
2019-Nov-15 03:15 250 6 8.7 5.0
2019-Nov-15 03:10 250 6 8.7 5.0
2019-Nov-15 03:05 250 6 8.7 6.0
2019-Nov-15 03:00 240 6 8.7 5.0
2019-Nov-15 02:55 250 5 8.7 5.0
2019-Nov-15 02:53 250 6 8.7 5.0
2019-Nov-15 02:50 250 5 8.7 5.0
2019-Nov-15 02:45 250 5 8.7 6.0
2019-Nov-15 02:40 260 6 8.7 5.0
2019-Nov-15 02:35 260 6 8.7 6.0
2019-Nov-15 02:30 250 6 8.7 6.0
2019-Nov-15 02:25 260 8 8.7 6.0
2019-Nov-15 02:20 260 7 8.7 6.0
2019-Nov-15 02:15 260 6 8.7 6.0
2019-Nov-15 02:10 270 7 8.7 6.0
2019-Nov-15 02:05 270 5 8.7 6.0
2019-Nov-15 02:00 260 5 8.7 6.0
2019-Nov-15 01:55 250 5 8.7 6.0
2019-Nov-15 01:53 250 6 8.7 6.1
2019-Nov-15 01:50 250 6 8.7 6.0
2019-Nov-15 01:45 250 6 8.7 6.0
2019-Nov-15 01:40 250 7 8.7 6.0
2019-Nov-15 01:35 250 6 8.7 6.0
2019-Nov-15 01:30 250 7 8.7 7.0
2019-Nov-15 01:25 260 9 8.7 6.0
2019-Nov-15 01:20 270 6 8.7 7.0
2019-Nov-15 01:15 260 7 8.7 7.0
2019-Nov-15 01:10 250 7 8.7 7.0
2019-Nov-15 01:05 240 7 8.7 7.0
2019-Nov-15 01:00 240 6 8.7 7.0
2019-Nov-15 00:55 250 7 8.7 7.0
2019-Nov-15 00:53 240 6 8.7 6.7
2019-Nov-15 00:50 240 7 8.7 7.0
2019-Nov-15 00:45 240 7 8.7 7.0
2019-Nov-15 00:40 230 7 8.7 7.0
2019-Nov-15 00:35 240 6 8.7 7.0
2019-Nov-15 00:30 240 7 8.7 7.0
2019-Nov-15 00:25 250 6 8.7 7.0
2019-Nov-15 00:20 250 6 8.7 7.0
2019-Nov-15 00:15 240 5 8.7 7.0
2019-Nov-15 00:10 230 7 8.7 7.0
2019-Nov-15 00:05 230 6 8.7 7.0
2019-Nov-15 00:00 240 7 8.7 7.0
2019-Nov-14 23:55 230 8 8.7 7.0
2019-Nov-14 23:53 230 8 8.7 7.2
2019-Nov-14 23:50 230 9 8.7 7.0
2019-Nov-14 23:45 230 8 8.7 7.0
2019-Nov-14 23:40 230 10 8.7 7.0
2019-Nov-14 23:35 230 9 8.7 7.0
2019-Nov-14 23:30 220 9 8.7 7.0
2019-Nov-14 23:25 220 10 8.7 7.0
2019-Nov-14 23:20 210 8 8.7 7.0
2019-Nov-14 23:15 210 11 8.7 7.0
2019-Nov-14 23:10 210 11 8.7 7.0
2019-Nov-14 23:05 210 12 8.7 7.0
2019-Nov-14 23:00 210 12 8.7 7.0
2019-Nov-14 22:55 210 10 8.7 7.0
2019-Nov-14 22:53 210 11 8.7 7.2
2019-Nov-14 22:50 210 10 8.7 7.0
2019-Nov-14 22:45 210 9 gusting 15 8.7 7.0
2019-Nov-14 22:40 210 9 8.7 7.0
2019-Nov-14 22:35 210 10 8.7 7.0
2019-Nov-14 22:30 220 11 8.7 7.0
2019-Nov-14 22:25 210 10 8.7 7.0
2019-Nov-14 22:20 220 9 8.7 7.0
2019-Nov-14 22:15 210 11 8.7 7.0
2019-Nov-14 22:10 220 11 8.7 7.0
2019-Nov-14 22:05 220 10 8.7 7.0
2019-Nov-14 22:00 210 10 8.7 7.0
2019-Nov-14 21:55 220 8 8.7 7.0
2019-Nov-14 21:53 220 8 8.7 7.2
2019-Nov-14 21:50 220 11 8.7 7.0
2019-Nov-14 21:45 220 9 8.7 7.0
2019-Nov-14 21:40 220 9 8.7 7.0
2019-Nov-14 21:35 220 10 8.7 7.0
2019-Nov-14 21:30 220 9 8.7 7.0
2019-Nov-14 21:25 210 8 8.7 7.0
2019-Nov-14 21:20 210 11 8.7 7.0
2019-Nov-14 21:15 200 12 8.7 7.0
2019-Nov-14 21:10 200 8 8.7 7.0
2019-Nov-14 21:05 220 7 8.7 7.0
2019-Nov-14 21:00 220 10 8.7 7.0
2019-Nov-14 20:55 200 11 8.7 7.0
2019-Nov-14 20:53 210 11 8.7 7.2
2019-Nov-14 20:50 220 10 8.7 7.0
2019-Nov-14 20:45 230 11 8.7 7.0
2019-Nov-14 20:40 220 9 8.7 7.0
2019-Nov-14 20:35 220 10 8.7 7.0
2019-Nov-14 20:30 220 11 8.7 7.0
2019-Nov-14 20:25 200 13 8.7 7.0
2019-Nov-14 20:20 210 10 8.7 7.0
2019-Nov-14 20:15 220 11 8.7 7.0
2019-Nov-14 20:10 200 13 8.7 7.0
2019-Nov-14 20:05 200 11 8.7 7.0
2019-Nov-14 20:00 190 8 8.7 7.0
2019-Nov-14 19:55 210 10 8.7 7.0
2019-Nov-14 19:53 200 9 8.7 7.2
2019-Nov-14 19:50 210 7 8.7 7.0
2019-Nov-14 19:45 220 11 8.7 7.0
2019-Nov-14 19:40 210 8 8.7 7.0
2019-Nov-14 19:35 200 13 8.7 7.0
2019-Nov-14 19:30 210 12 8.7 7.0
2019-Nov-14 19:25 200 13 8.7 7.0
2019-Nov-14 19:20 210 11 8.7 7.0
2019-Nov-14 19:15 200 13 8.7 8.0
2019-Nov-14 19:10 210 13 8.7 8.0
2019-Nov-14 19:05 220 14 8.7 8.0
2019-Nov-14 19:00 220 7 8.7 7.0
2019-Nov-14 18:55 190 12 8.7 7.0
2019-Nov-14 18:53 200 11 8.7 7.2
2019-Nov-14 18:50 210 11 8.7 7.0
2019-Nov-14 18:45 200 12 8.7 7.0
2019-Nov-14 18:40 200 9 8.7 7.0
2019-Nov-14 18:35 230 9 8.7 7.0
2019-Nov-14 18:30 190 10 8.7 7.0
2019-Nov-14 18:25 200 8 8.7 7.0
2019-Nov-14 18:20 200 10 8.7 7.0
2019-Nov-14 18:15 230 10 8.7 7.0
2019-Nov-14 18:10 200 6 8.7 7.0
2019-Nov-14 18:05 250 7 8.7 7.0
2019-Nov-14 18:00 230 6 8.7 7.0
2019-Nov-14 17:55 230 8 8.7 6.0
2019-Nov-14 17:53 220 8 8.7 6.1
2019-Nov-14 17:50 230 7 8.7 6.0
2019-Nov-14 17:45 240 10 8.7 6.0
2019-Nov-14 17:40 240 7 8.7 6.0
2019-Nov-14 17:35 250 4 8.7 6.0
2019-Nov-14 17:30 200 7 8.7 6.0
2019-Nov-14 17:25 210 6 8.7 6.0
2019-Nov-14 17:20 210 9 8.7 6.0
2019-Nov-14 17:15 250 9 8.7 6.0
2019-Nov-14 17:10 210 7 8.7 6.0
2019-Nov-14 17:05 230 8 8.7 6.0
2019-Nov-14 17:00 220 6 8.7 6.0
2019-Nov-14 16:55 210 8 8.7 6.0
2019-Nov-14 16:53 210 8 8.7 5.6
2019-Nov-14 16:50 220 8 8.7 5.0
2019-Nov-14 16:45 240 6 8.7 5.0
2019-Nov-14 16:40 220 6 8.7 5.0
2019-Nov-14 16:35 220 5 8.7 5.0
2019-Nov-14 16:30 230 3 8.7 4.0
2019-Nov-14 16:25 200 3 8.7 4.0
2019-Nov-14 16:20 210 4 8.7 4.0
2019-Nov-14 16:15 220 6 8.7 4.0
2019-Nov-14 16:10 250 3 8.7 4.0
2019-Nov-14 16:05 280 4 8.7 4.0
2019-Nov-14 16:00 270 3 8.7 4.0
2019-Nov-14 15:55 300 3 8.7 4.0
2019-Nov-14 15:53 270 4 8.7 3.9
2019-Nov-14 15:50 260 4 8.7 4.0
2019-Nov-14 15:45 280 5 8.7 4.0
2019-Nov-14 15:40 290 4 8.7 4.0
2019-Nov-14 15:35 330 4 8.7 3.0
2019-Nov-14 15:30 320 3 8.7 3.0
2019-Nov-14 15:25 320 5 8.7 3.0
2019-Nov-14 15:20 320 5 8.7 3.0
2019-Nov-14 15:15 300 5 8.7 3.0
2019-Nov-14 15:10 320 5 8.7 3.0
2019-Nov-14 15:05 300 5 8.7 3.0
2019-Nov-14 15:00 280 6 8.7 3.0
2019-Nov-14 14:55 300 4 8.7 3.0
2019-Nov-14 14:53 300 6 8.7 2.8
2019-Nov-14 14:50 290 7 8.7 3.0
2019-Nov-14 14:45 300 6 8.7 3.0
2019-Nov-14 14:40 300 6 8.7 3.0
2019-Nov-14 14:35 280 7 8.7 3.0
2019-Nov-14 14:30 300 7 8.7 2.0
2019-Nov-14 14:25 300 6 8.7 2.0
2019-Nov-14 14:20 290 5 8.7 2.0
2019-Nov-14 14:15 290 5 8.7 2.0
2019-Nov-14 14:10 320 4 8.7 2.0
2019-Nov-14 14:05 330 3 8.7 2.0
2019-Nov-14 14:00 340 3 8.7 2.0
2019-Nov-14 13:55 320 3 8.7 1.0
2019-Nov-14 13:53 310 2 8.7 1.1
2019-Nov-14 13:50 8.7 1.0
2019-Nov-14 13:45 8.7 1.0
2019-Nov-14 13:40 020 3 8.7 1.0
2019-Nov-14 13:35 010 4 8.7-0.0
2019-Nov-14 13:30 010 4 8.7-0.0
2019-Nov-14 13:25 030 4 8.7-0.0
2019-Nov-14 13:20 040 4 8.7-1.0
2019-Nov-14 13:15 020 4 8.7-1.0
2019-Nov-14 13:10 020 4 8.7-1.0
2019-Nov-14 13:05 360 3 8.7-1.0
2019-Nov-14 13:00 040 5 8.7-1.0
2019-Nov-14 12:55 030 4 8.7-2.0
2019-Nov-14 12:53 040 5 8.7-1.7
2019-Nov-14 12:50 030 4 8.7-2.0
2019-Nov-14 12:45 050 4 8.7-2.0
2019-Nov-14 12:40 030 5 8.7-2.0
2019-Nov-14 12:35 030 5 8.7-2.0
2019-Nov-14 12:30 320 4 8.7-2.0
2019-Nov-14 12:25 060 5 8.7-2.0
2019-Nov-14 12:20 070 7 8.7-3.0
2019-Nov-14 12:15 070 7 8.7-3.0
2019-Nov-14 12:10 070 9 8.7-3.0
2019-Nov-14 12:05 070 7 8.7-3.0
2019-Nov-14 12:00 070 7 8.7-3.0
2019-Nov-14 11:55 070 7 8.7-3.0
2019-Nov-14 11:53 070 6 8.7-3.3
2019-Nov-14 11:50 070 7 8.7-3.0
2019-Nov-14 11:45 070 6 8.7-3.0
2019-Nov-14 11:40 060 6 8.7-4.0
2019-Nov-14 11:35 070 6 8.7-4.0
2019-Nov-14 11:30 070 6 8.7-4.0
2019-Nov-14 11:25 060 6 8.7-4.0
2019-Nov-14 11:20 060 6 8.7-4.0
2019-Nov-14 11:15 060 6 8.7-4.0
2019-Nov-14 11:10 070 5 8.7-4.0
2019-Nov-14 11:05 070 6 8.7-4.0
2019-Nov-14 11:00 060 5 8.7-4.0
2019-Nov-14 10:55 060 5 8.7-4.0
2019-Nov-14 10:53 060 6 8.7-3.9
2019-Nov-14 10:50 070 5 8.7-4.0
2019-Nov-14 10:45 070 5 8.7-4.0
2019-Nov-14 10:40 070 5 8.7-4.0
2019-Nov-14 10:35 060 5 8.7-4.0
2019-Nov-14 10:30 060 6 8.7-4.0
2019-Nov-14 10:25 060 6 8.7-4.0
2019-Nov-14 10:20 070 6 8.7-4.0
2019-Nov-14 10:15 070 5 8.7-4.0
2019-Nov-14 10:10 060 6 8.7-4.0
2019-Nov-14 10:05 060 6 8.7-4.0
2019-Nov-14 10:00 060 6 8.7-4.0
2019-Nov-14 09:55 060 6 8.7-4.0
2019-Nov-14 09:53 060 5 8.7-3.9
2019-Nov-14 09:50 060 5 8.7-4.0
2019-Nov-14 09:45 060 5 8.7-4.0
2019-Nov-14 09:40 070 6 8.7-4.0
2019-Nov-14 09:35 060 6 8.7-4.0
2019-Nov-14 09:30 050 6 8.7-4.0
2019-Nov-14 09:25 060 5 8.7-4.0
2019-Nov-14 09:20 060 5 8.7-4.0
2019-Nov-14 09:15 070 5 8.7-4.0
2019-Nov-14 09:10 070 6 8.7-4.0
2019-Nov-14 09:05 070 6 8.7-4.0
2019-Nov-14 09:00 070 6 8.7-4.0
2019-Nov-14 08:55 070 5 8.7-4.0
2019-Nov-14 08:53 080 4 8.7-4.4
2019-Nov-14 08:50 060 5 8.7-4.0
2019-Nov-14 08:45 080 4 8.7-4.0
2019-Nov-14 08:40 070 5 8.7-4.0
2019-Nov-14 08:35 070 5 8.7-4.0
2019-Nov-14 08:30 070 5 8.7-4.0
2019-Nov-14 08:25 070 6 8.7-4.0
2019-Nov-14 08:20 090 6 8.7-4.0
2019-Nov-14 08:15 080 6 8.7-4.0
2019-Nov-14 08:10 080 5 8.7-4.0
2019-Nov-14 08:05 080 5 8.7-4.0
2019-Nov-14 08:00 070 5 8.7-4.0
2019-Nov-14 07:55 080 4 8.7-4.0
2019-Nov-14 07:53 080 4 8.7-4.4
2019-Nov-14 07:50 070 4 8.7-4.0
2019-Nov-14 07:45 060 4 8.7-4.0
2019-Nov-14 07:40 060 4 8.7-4.0
2019-Nov-14 07:35 050 4 8.7-4.0
2019-Nov-14 07:30 030 4 8.7-5.0
2019-Nov-14 07:25 030 5 8.7-4.0
2019-Nov-14 07:20 040 4 8.7-4.0
2019-Nov-14 07:15 050 3 8.7-4.0
2019-Nov-14 07:10 060 3 8.7-4.0
2019-Nov-14 07:05 060 3 8.7-4.0
2019-Nov-14 07:00 8.7-4.0
2019-Nov-14 06:55 050 4 8.7-4.0
2019-Nov-14 06:53 050 4 8.7-4.4
2019-Nov-14 06:50 060 4 8.7-4.0
2019-Nov-14 06:45 060 3 8.7-4.0
2019-Nov-14 06:40 050 3 8.7-5.0
2019-Nov-14 06:35 050 3 8.7-5.0
2019-Nov-14 06:30 060 3 8.7-5.0
2019-Nov-14 06:25 8.7-5.0
2019-Nov-14 06:20 8.7-5.0
2019-Nov-14 06:15 8.7-6.0
2019-Nov-14 06:10 8.7-5.0
2019-Nov-14 06:05 030 3 8.7-4.0
2019-Nov-14 06:00 8.7-4.0
2019-Nov-14 05:55 8.7-4.0
2019-Nov-14 05:53 8.7-3.9
2019-Nov-14 05:50 8.7-4.0
2019-Nov-14 05:45 8.7-4.0
2019-Nov-14 05:40 8.7-4.0
2019-Nov-14 05:35 8.7-4.0
2019-Nov-14 05:30 8.7-4.0
2019-Nov-14 05:25 8.7-5.0
2019-Nov-14 05:20 8.7-4.0
2019-Nov-14 05:15 060 3 8.7-4.0
2019-Nov-14 05:10 8.7-4.0
2019-Nov-14 05:05 8.7-4.0
2019-Nov-14 05:00 8.7-4.0
2019-Nov-14 04:55 8.7-4.0
2019-Nov-14 04:53 010 2 8.7-4.4
2019-Nov-14 04:50 020 3 8.7-4.0
2019-Nov-14 04:45 030 3 8.7-4.0
2019-Nov-14 04:40 030 3 8.7-4.0
2019-Nov-14 04:35 030 4 8.7-4.0
2019-Nov-14 04:30 8.7-3.0
2019-Nov-14 04:25 010 3 8.7-3.0
2019-Nov-14 04:20 8.7-4.0
2019-Nov-14 04:15 8.7-4.0
2019-Nov-14 04:10 8.7-4.0
2019-Nov-14 04:05 8.7-4.0
2019-Nov-14 04:00 8.7-4.0
2019-Nov-14 03:55 8.7-4.0
2019-Nov-14 03:53 8.7-3.9
2019-Nov-14 03:50 060 3 8.7-4.0
2019-Nov-14 03:45 8.7-4.0
2019-Nov-14 03:40 8.7-4.0
2019-Nov-14 03:35 8.7-4.0
2019-Nov-14 03:30 8.7-4.0
2019-Nov-14 03:25 8.7-4.0
2019-Nov-14 03:20 010 3 8.7-4.0
2019-Nov-14 03:15 8.7-4.0
2019-Nov-14 03:10 040 3 8.7-5.0
2019-Nov-14 03:05 8.7-4.0
2019-Nov-14 03:00 8.7-4.0
2019-Nov-14 02:55 8.7-4.0
2019-Nov-14 02:53 8.7-3.9
2019-Nov-14 02:50 8.7-4.0
2019-Nov-14 02:45 8.7-4.0
2019-Nov-14 02:40 8.7-4.0
2019-Nov-14 02:35 8.7-4.0
2019-Nov-14 02:30 8.7-4.0
2019-Nov-14 02:25 8.7-3.0
2019-Nov-14 02:20 8.7-3.0
2019-Nov-14 02:15 8.7-3.0
2019-Nov-14 02:10 8.7-2.0
2019-Nov-14 02:05 8.7-2.0
2019-Nov-14 02:00 8.7-2.0
2019-Nov-14 01:55 8.7-2.0
2019-Nov-14 01:53 8.7-2.2
2019-Nov-14 01:50 8.7-2.0
2019-Nov-14 01:45 8.7-2.0
2019-Nov-14 01:40 8.7-2.0
2019-Nov-14 01:35 8.7-2.0
2019-Nov-14 01:30 8.7-3.0
2019-Nov-14 01:25 8.7-2.0
2019-Nov-14 01:20 060 3 8.7-2.0
2019-Nov-14 01:15 060 3 8.7-3.0
2019-Nov-14 01:10 030 4 8.7-2.0
2019-Nov-14 01:05 360 3 8.7-2.0
2019-Nov-14 01:00 8.7-1.0
2019-Nov-14 00:55 350 3 8.7-2.0
2019-Nov-14 00:53 330 2 8.7-1.7
2019-Nov-14 00:50 8.7-2.0
2019-Nov-14 00:45 330 3 8.7-1.0
2019-Nov-14 00:40 340 3 8.7-2.0
2019-Nov-14 00:35 8.7-2.0
2019-Nov-14 00:30 8.7-2.0
2019-Nov-14 00:25 8.7-1.0
2019-Nov-14 00:20 8.7-1.0
2019-Nov-14 00:15 8.7-2.0
2019-Nov-14 00:10 350 3 8.7-2.0
2019-Nov-14 00:05 350 5 8.7-1.0
2019-Nov-14 00:00 340 4 8.7-1.0
2019-Nov-13 23:55 340 5 8.7-1.0
2019-Nov-13 23:53 340 5 8.7-1.1
2019-Nov-13 23:50 330 5 8.7-1.0
2019-Nov-13 23:45 330 5 8.7-1.0
2019-Nov-13 23:40 330 4 8.7-1.0
2019-Nov-13 23:35 320 3 8.7-1.0
2019-Nov-13 23:30 340 4 8.7-1.0
2019-Nov-13 23:25 340 4 8.7-1.0
2019-Nov-13 23:20 340 3 8.7-1.0
2019-Nov-13 23:15 8.7-1.0
2019-Nov-13 23:10 040 3 8.7-2.0
2019-Nov-13 23:05 050 3 8.7-2.0
2019-Nov-13 23:00 020 3 8.7-1.0
2019-Nov-13 22:55 360 3 8.7-1.0
2019-Nov-13 22:53 350 2 8.7-1.1
2019-Nov-13 22:50 340 3 8.7-1.0
2019-Nov-13 22:45 330 3 8.7-1.0
2019-Nov-13 22:40 320 3 8.7-1.0
2019-Nov-13 22:35 330 3 8.7-1.0
2019-Nov-13 22:30 300 4 8.7-1.0
2019-Nov-13 22:25 310 3 8.7-1.0
2019-Nov-13 22:20 320 3 8.7-1.0
2019-Nov-13 22:15 330 5 8.7-1.0
2019-Nov-13 22:10 320 5 8.7-1.0
2019-Nov-13 22:05 330 4 8.7-1.0
2019-Nov-13 22:00 320 4 8.7-1.0
2019-Nov-13 21:55 320 4 8.7-1.0
2019-Nov-13 21:53 310 5 8.7-0.6
2019-Nov-13 21:50 320 5 8.7-1.0
2019-Nov-13 21:45 320 6 8.7-0.0
2019-Nov-13 21:40 320 6 8.7-0.0
2019-Nov-13 21:35 330 6 8.7-0.0
2019-Nov-13 21:30 330 8 8.7-0.0
2019-Nov-13 21:25 340 9 8.7-0.0
2019-Nov-13 21:20 330 7 8.7-0.0
2019-Nov-13 21:15 330 9 8.7-0.0
2019-Nov-13 21:10 320 7 8.7-0.0
2019-Nov-13 21:05 340 8 8.7 1.0
2019-Nov-13 21:00 330 8 8.7 1.0
2019-Nov-13 20:55 320 7 8.7 1.0
2019-Nov-13 20:53 340 7 8.7 0.6
2019-Nov-13 20:50 330 9 8.7 1.0
2019-Nov-13 20:45 330 9 8.7 1.0
2019-Nov-13 20:40 340 8 8.7 1.0
2019-Nov-13 20:35 340 9 8.7 1.0
2019-Nov-13 20:30 340 8 8.7 1.0
2019-Nov-13 20:25 340 7 8.7 1.0
2019-Nov-13 20:20 330 8 8.7 1.0
2019-Nov-13 20:15 020 9 8.7 1.0
2019-Nov-13 20:10 010 11 8.7 1.0
2019-Nov-13 20:05 330 9 8.7 1.0
2019-Nov-13 20:00 010 9 8.7 1.0
2019-Nov-13 19:55 340 6 8.7 1.0
2019-Nov-13 19:53 360 9 8.7 0.6
2019-Nov-13 19:50 340 9 8.7 1.0
2019-Nov-13 19:45 360 11 8.7 1.0
2019-Nov-13 19:40 360 10 8.7 1.0
2019-Nov-13 19:35 350 11 8.7 1.0
2019-Nov-13 19:30 350 9 8.7 1.0
2019-Nov-13 19:25 320 8 8.7 1.0
2019-Nov-13 19:20 360 9 8.7 1.0
2019-Nov-13 19:15 310 7 8.7 1.0
2019-Nov-13 19:10 330 8 8.7 1.0
2019-Nov-13 19:05 330 9 8.7 1.0
2019-Nov-13 19:00 330 9 8.7 1.0
2019-Nov-13 18:55 360 8 8.7 1.0
2019-Nov-13 18:53 340 6 gusting 15 8.7 0.6
2019-Nov-13 18:50 340 10 8.7 1.0
2019-Nov-13 18:45 350 10 8.7 1.0
2019-Nov-13 18:40 350 9 8.7 1.0
2019-Nov-13 18:35 350 10 8.7 1.0
2019-Nov-13 18:30 360 12 gusting 18 8.7 1.0
2019-Nov-13 18:25 010 13 8.7 1.0
2019-Nov-13 18:20 340 13 8.7 1.0
2019-Nov-13 18:15 340 12 gusting 18 8.7 1.0
2019-Nov-13 18:10 340 11 8.7 1.0
2019-Nov-13 18:05 350 13 8.7 1.0
2019-Nov-13 18:00 330 10 8.7 1.0
2019-Nov-13 17:55 350 11 8.7 1.0
2019-Nov-13 17:53 330 11 8.7 0.6
2019-Nov-13 17:50 340 8 8.7 1.0
2019-Nov-13 17:45 360 10 8.7 1.0
2019-Nov-13 17:40 340 9 gusting 15 8.7-0.0
2019-Nov-13 17:35 330 12 8.7 1.0
2019-Nov-13 17:30 340 10 8.7 1.0
2019-Nov-13 17:25 310 9 8.7 1.0
2019-Nov-13 17:20 330 9 8.7-0.0
2019-Nov-13 17:15 360 10 8.7-0.0
2019-Nov-13 17:10 340 8 8.7-0.0
2019-Nov-13 17:05 330 10 8.7-1.0
2019-Nov-13 17:00 340 14 8.7-1.0
2019-Nov-13 16:55 330 9 8.7-1.0
2019-Nov-13 16:53 330 6 8.7-0.0
2019-Nov-13 16:50 320 10 8.7-0.0
2019-Nov-13 16:45 360 6 8.7-0.0
2019-Nov-13 16:40 350 10 8.7-1.0
2019-Nov-13 16:35 320 10 8.7-1.0
2019-Nov-13 16:30 340 9 8.7-1.0
2019-Nov-13 16:25 350 11 8.7-1.0
2019-Nov-13 16:20 330 13 8.7-1.0
2019-Nov-13 16:15 350 10 8.7-1.0
2019-Nov-13 16:10 310 12 8.7-1.0
2019-Nov-13 16:05 330 14 gusting 20 8.7-1.0
2019-Nov-13 16:00 340 11 8.7-1.0
2019-Nov-13 15:55 320 13 gusting 18 8.7-1.0
2019-Nov-13 15:53 330 9 gusting 21 8.7-1.1
2019-Nov-13 15:50 310 15 gusting 22 8.7-1.0
2019-Nov-13 15:45 320 13 8.7-2.0
2019-Nov-13 15:40 340 13 gusting 18 8.7-1.0
2019-Nov-13 15:35 330 13 8.7-2.0
2019-Nov-13 15:30 340 12 8.7-2.0
2019-Nov-13 15:25 310 13 8.7-1.0
2019-Nov-13 15:20 340 10 8.7-2.0
2019-Nov-13 15:15 350 14 8.7-2.0
2019-Nov-13 15:10 350 10 8.7-2.0
2019-Nov-13 15:05 340 13 8.7-2.0
2019-Nov-13 15:00 330 13 8.7-2.0
2019-Nov-13 14:55 340 17 gusting 22 8.7-2.0
2019-Nov-13 14:53 320 14 gusting 20 8.7-2.2
2019-Nov-13 14:50 330 15 8.7-2.0
2019-Nov-13 14:45 330 10 gusting 16 8.7-2.0
2019-Nov-13 14:40 330 15 8.7-2.0
2019-Nov-13 14:35 340 13 8.7-2.0
2019-Nov-13 14:30 330 15 8.7-2.0
2019-Nov-13 14:25 320 11 8.7-3.0
2019-Nov-13 14:20 330 13 8.7-2.0
2019-Nov-13 14:15 330 10 gusting 16 8.7-2.0
2019-Nov-13 14:10 330 10 8.7-3.0
2019-Nov-13 14:05 330 15 8.7-3.0
2019-Nov-13 14:00 330 15 gusting 20 8.7-3.0
2019-Nov-13 13:55 320 14 gusting 19 8.7-3.0
2019-Nov-13 13:53 330 14 gusting 22 8.7-2.8
2019-Nov-13 13:50 330 10 gusting 19 8.7-3.0
2019-Nov-13 13:45 330 12 8.7-3.0
2019-Nov-13 13:40 340 11 8.7-3.0
2019-Nov-13 13:35 330 12 gusting 17 8.7-3.0
2019-Nov-13 13:30 320 14 gusting 19 8.7-3.0
2019-Nov-13 13:25 330 12 8.7-3.0
2019-Nov-13 13:20 320 13 8.7-3.0
2019-Nov-13 13:15 320 15 gusting 20 8.7-3.0
2019-Nov-13 13:10 310 13 gusting 22 8.7-3.0
2019-Nov-13 13:05 320 11 8.7-4.0
2019-Nov-13 13:00 320 11 gusting 17 8.7-4.0
2019-Nov-13 12:55 310 12 8.7-4.0
2019-Nov-13 12:53 330 11 gusting 19 8.7-3.9
2019-Nov-13 12:50 330 11 gusting 17 8.7-4.0
2019-Nov-13 12:45 320 11 8.7-4.0
2019-Nov-13 12:40 310 12 gusting 19 8.7-4.0
2019-Nov-13 12:35 310 7 8.7-4.0
2019-Nov-13 12:30 320 10 8.7-4.0
2019-Nov-13 12:25 300 7 8.7-4.0
2019-Nov-13 12:20 310 8 8.7-4.0
2019-Nov-13 12:15 300 7 8.7-4.0
2019-Nov-13 12:10 300 9 8.7-5.0
2019-Nov-13 12:05 310 6 8.7-5.0
2019-Nov-13 12:00 320 5 8.7-5.0
2019-Nov-13 11:55 320 7 8.7-5.0
2019-Nov-13 11:53 320 6 8.7-5.0
2019-Nov-13 11:50 300 6 8.7-5.0
2019-Nov-13 11:45 310 6 8.7-5.0
2019-Nov-13 11:40 290 7 8.7-5.0
2019-Nov-13 11:35 320 7 8.7-5.0
2019-Nov-13 11:30 310 8 8.7-5.0
2019-Nov-13 11:25 310 7 8.7-5.0
2019-Nov-13 11:20 300 8 8.7-5.0
2019-Nov-13 11:15 310 9 gusting 14 8.7-5.0
2019-Nov-13 11:10 310 12 8.7-5.0
2019-Nov-13 11:05 300 11 8.7-5.0
2019-Nov-13 11:00 310 8 8.7-5.0
2019-Nov-13 10:55 310 8 8.7-5.0
2019-Nov-13 10:53 310 8 gusting 17 8.7-5.0
2019-Nov-13 10:50 310 8 8.7-5.0
2019-Nov-13 10:45 310 8 8.7-5.0
2019-Nov-13 10:40 310 10 8.7-5.0
2019-Nov-13 10:35 310 9 8.7-5.0
2019-Nov-13 10:30 300 8 8.7-5.0
2019-Nov-13 10:25 300 10 gusting 16 8.7-5.0
2019-Nov-13 10:20 300 11 gusting 16 8.7-5.0
2019-Nov-13 10:15 300 7 8.7-5.0
2019-Nov-13 10:10 310 11 8.7-5.0
2019-Nov-13 10:05 310 11 8.7-4.0
2019-Nov-13 10:00 310 8 8.7-4.0
2019-Nov-13 09:55 330 11 gusting 17 8.7-5.0
2019-Nov-13 09:53 310 8 gusting 17 8.7-5.0
2019-Nov-13 09:50 320 8 8.7-5.0
2019-Nov-13 09:40 320 11 8.7-4.0
2019-Nov-13 09:35 320 10 gusting 15 8.7-4.0
2019-Nov-13 09:30 310 11 8.7-4.0
2019-Nov-13 09:25 320 11 8.7-5.0
2019-Nov-13 09:20 300 11 gusting 16 8.7-4.0
2019-Nov-13 09:15 310 13 gusting 18 8.7-4.0
2019-Nov-13 09:10 310 13 8.7-5.0
2019-Nov-13 09:05 320 8 8.7-4.0
2019-Nov-13 09:00 320 11 8.7-4.0
2019-Nov-13 08:55 320 9 8.7-4.0
2019-Nov-13 08:53 320 9 gusting 18 8.7-4.4
2019-Nov-13 08:50 320 11 8.7-4.0
2019-Nov-13 08:45 320 11 8.7-4.0
2019-Nov-13 08:40 320 9 gusting 15 8.7-4.0
2019-Nov-13 08:35 320 8 8.7-4.0
2019-Nov-13 08:30 320 12 gusting 19 8.7-4.0
2019-Nov-13 08:25 320 10 8.7-4.0
2019-Nov-13 08:20 320 8 8.7-4.0
2019-Nov-13 08:15 310 12 8.7-4.0
2019-Nov-13 08:10 310 12 8.7-4.0
2019-Nov-13 08:05 310 9 8.7-4.0
2019-Nov-13 08:00 320 11 gusting 16 8.7-4.0
2019-Nov-13 07:55 320 11 gusting 17 8.7-4.0
2019-Nov-13 07:53 320 11 gusting 17 8.7-4.4
2019-Nov-13 07:50 330 8 8.7-4.0
2019-Nov-13 07:45 310 10 8.7-4.0
2019-Nov-13 07:40 310 12 8.7-4.0
2019-Nov-13 07:35 310 10 gusting 15 8.7-4.0
2019-Nov-13 07:30 320 10 8.7-4.0
2019-Nov-13 07:25 320 9 8.7-4.0
2019-Nov-13 07:20 320 11 8.7-4.0
2019-Nov-13 07:15 310 11 gusting 19 8.7-4.0
2019-Nov-13 07:10 310 8 8.7-4.0
2019-Nov-13 07:05 300 12 gusting 19 8.7-4.0
2019-Nov-13 07:00 320 11 gusting 16 8.7-4.0